{"data":{"norad_id":68337,"intl_designator":"2026-059S","name":"STARLINK-36237","alt_names":[],"object_type":"PAYLOAD","status":"ACTIVE","operator":null,"country":"US","launch_date":"2026-03-22","launch_site_code":"AFETR","launch_vehicle":null,"mission":null,"orbit_class":"UNKNOWN","rcs_meters":null,"size_class":null,"mass_kg":null,"dimensions":null,"purposes":["comms"],"wikipedia_slug":null,"has_3d_model":false,"image_url":null,"decayed_at":null,"tle_current":{"epoch":"2026-05-25T00:00:02.000160Z","epoch_age_seconds":74479,"freshness":"FRESH","line1":"1 68337U 26059S   26145.00002315  .00066836  00000+0  19121-2 0  9992","line2":"2 68337  53.1606 349.5908 0000624  74.8933  90.5441 15.35365234  5896","mean_motion":15.35365234,"eccentricity":6.24e-5,"inclination_deg":53.1606,"raan_deg":349.5908,"arg_perigee_deg":74.8933,"mean_anomaly_deg":90.5441,"bstar":0.0019121,"rev_number":589,"period_min":93.788759059527,"perigee_km":459.40917491893,"apogee_km":460.26255393242,"semimajor_km":6837.9728644257,"source":"CELESTRAK","updated_at":"2026-05-25T13:38:21.924965Z"}}}